Clearwater, FL

10:00 PM EST on February 09, 2016 (GMT -0500)
Saint Petersburg-Clearwater International

Weather History for KPIE - August, 2013

Change the Weather History Date:

Saturday, August 17, 2013

  Actual Average Record
Temperature  
Mean Temperature 83 °F -  
Max Temperature 91 °F 90 °F - (-1)
Min Temperature 75 °F 76 °F - (-1)
Cooling Degree Days 18    
Growing Degree Days 33 (Base 50)    
Moisture  
Dew Point 75 °F    
Average Humidity 81    
Maximum Humidity 94    
Minimum Humidity 55    
Precipitation  
Precipitation 0.50 in - - ()
Sea Level Pressure  
Sea Level Pressure 30.04 in    
Wind  
Wind Speed 6 mph (ESE)    
Max Wind Speed 23 mph    
Max Gust Speed 31 mph    
Visibility 10 miles    
Events Rain , Thunderstorm    
Averages and records for this station are not official NWS values.
T = Trace of Precipitation, MM = Missing Value Source: NWS Daily Summary

Daily Weather History Graph

Daily Weather History Graph

Search for Another Location

Airport or City:

Trip Planner

Search our weather history database for the weather conditions in past years. The results will help you decide how hot, cold, wet, or windy it might be!

Date:

Astronomy

Aug. 17, 2013 Rise Set
Actual Time 7:02 AM EDT 8:06 PM EDT
Civil Twilight 6:37 AM EDT 8:31 PM EDT
Nautical Twilight 6:08 AM EDT 9:00 PM EDT
Astronomical Twilight 5:38 AM EDT 9:29 PM EDT
Moon 5:13 PM EDT (8/17) 3:13 AM EDT (8/17)
Length of Visible Light 13h 53m
Length of Day
13h 04m
Waxing Gibbous, 84% of the Moon is Illuminated
Aug 17
Waxing Gibbous
Aug 20
Full
Aug 28
Last Quarter
Sep 5
New
Sep 12
First Quarter

Hourly Weather History & Observations

Time (EDT) Temp. Heat Index Dew Point Humidity Pressure Visibility Wind Dir Wind Speed Gust Speed Precip Events Conditions
12:17 AM 80.6 °F 87.1 °F 77.0 °F 89% 30.05 in 10.0 mi East 6.9 mph - 0.04 in Thunderstorm Thunderstorm
12:26 AM 80.6 °F 87.1 °F 77.0 °F 89% 30.05 in 10.0 mi ESE 6.9 mph - 0.04 in Thunderstorm Thunderstorm
12:51 AM 77.0 °F - 75.2 °F 94% 30.06 in 9.0 mi ESE 15.0 mph - 0.05 in Rain , Thunderstorm Light Rain
12:53 AM 77.0 °F - 75.0 °F 94% 30.07 in 9.0 mi East 9.2 mph 19.6 mph 0.06 in Rain , Thunderstorm Light Thunderstorms and Rain
1:17 AM 77.0 °F - 75.2 °F 94% 30.07 in 10.0 mi SE 9.2 mph - 0.06 in Thunderstorm Overcast
1:40 AM 77.0 °F - 73.4 °F 89% 30.07 in 6.0 mi Calm Calm - 0.11 in Rain , Thunderstorm Rain
1:53 AM 75.9 °F - 73.9 °F 94% 30.05 in 10.0 mi Calm Calm - 0.13 in Rain , Thunderstorm Light Rain
2:01 AM 77.0 °F - 73.4 °F 89% 30.05 in 10.0 mi Calm Calm - 0.01 in Rain Light Rain
2:53 AM 78.1 °F - 75.0 °F 90% 30.03 in 10.0 mi Calm Calm - 0.01 in   Clear
3:53 AM 78.1 °F - 75.0 °F 90% 30.02 in 10.0 mi ENE 3.5 mph - N/A   Mostly Cloudy
4:17 AM 78.8 °F - 77.0 °F 94% 30.01 in 10.0 mi Calm Calm - N/A   Partly Cloudy
4:53 AM 78.1 °F - 75.9 °F 93% 30.00 in 10.0 mi Calm Calm - N/A   Clear
5:53 AM 78.1 °F - 75.9 °F 93% 30.01 in 10.0 mi SE 4.6 mph - N/A   Clear
6:45 AM 78.8 °F - 75.2 °F 89% 30.02 in 10.0 mi ESE 4.6 mph - N/A   Partly Cloudy
6:53 AM 78.1 °F - 75.9 °F 93% 30.03 in 10.0 mi ESE 5.8 mph - N/A   Mostly Cloudy
7:53 AM 79.0 °F - 75.9 °F 90% 30.04 in 10.0 mi ESE 5.8 mph - N/A   Clear
8:53 AM 82.0 °F 90.2 °F 77.0 °F 85% 30.05 in 10.0 mi East 5.8 mph - N/A   Clear
9:53 AM 84.0 °F 94.8 °F 78.1 °F 82% 30.04 in 10.0 mi SE 6.9 mph - N/A   Clear
10:53 AM 84.9 °F 95.3 °F 77.0 °F 77% 30.06 in 10.0 mi SSE 10.4 mph - N/A   Clear
11:53 AM 86.0 °F 96.0 °F 75.9 °F 72% 30.06 in 10.0 mi SE 12.7 mph - N/A   Clear
12:53 PM 89.1 °F 99.1 °F 75.0 °F 63% 30.05 in 10.0 mi SE 9.2 mph - N/A   Partly Cloudy
1:53 PM 90.0 °F 100.2 °F 75.0 °F 61% 30.03 in 10.0 mi SE 12.7 mph - N/A   Scattered Clouds
2:53 PM 91.0 °F 101.6 °F 75.0 °F 59% 30.01 in 10.0 mi SSE 10.4 mph - N/A   Mostly Cloudy
3:53 PM 91.9 °F 101.3 °F 73.9 °F 55% 30.00 in 10.0 mi ESE 9.2 mph 18.4 mph N/A   Scattered Clouds
4:13 PM 91.4 °F 100.1 °F 73.4 °F 55% 29.99 in 10.0 mi South 8.1 mph - N/A Thunderstorm Partly Cloudy
4:50 PM 77.0 °F - 73.4 °F 89% 30.01 in 1.8 mi SE 23.0 mph 31.1 mph 0.19 in Rain , Thunderstorm Heavy Thunderstorms and Rain
4:53 PM 75.9 °F - 72.0 °F 87% 30.01 in 10.0 mi ESE 11.5 mph 31.1 mph 0.23 in Rain , Thunderstorm Heavy Thunderstorms and Rain
5:06 PM 78.8 °F - 71.6 °F 78% 30.01 in 10.0 mi East 6.9 mph - 0.00 in Rain , Thunderstorm Light Thunderstorms and Rain
5:46 PM 84.2 °F 90.9 °F 73.4 °F 70% 30.00 in 10.0 mi Calm Calm - 0.00 in   Clear
5:53 PM 87.1 °F 96.3 °F 75.0 °F 67% 30.00 in 10.0 mi Calm Calm - 0.00 in   Clear
6:53 PM 86.0 °F 95.1 °F 75.0 °F 70% 30.03 in 10.0 mi SE 6.9 mph - N/A   Clear
7:53 PM 84.0 °F 90.2 °F 73.0 °F 69% 30.05 in 10.0 mi ESE 5.8 mph - N/A   Clear
8:53 PM 82.9 °F 88.0 °F 72.0 °F 69% 30.07 in 10.0 mi SE 10.4 mph - N/A   Mostly Cloudy
9:53 PM 79.0 °F - 73.0 °F 82% 30.09 in 10.0 mi South 4.6 mph - 0.01 in Rain Light Rain
10:53 PM 78.1 °F - 75.0 °F 90% 30.08 in 10.0 mi Calm Calm - 0.06 in Rain Light Rain
11:53 PM 80.1 °F 84.5 °F 73.9 °F 81% 30.09 in 10.0 mi ENE 3.5 mph - 0.00 in   Partly Cloudy